This is the latest recevied weather packets stored in our database for station/object OH6HPS. If no packets are shown the sender has not sent any weather packets the latest 10 day(s).
| Time | Temp. | Humidity | Pressure | Rain* | Wind** | Luminosity | Snow |
|---|---|---|---|---|---|---|---|
| 1788102842 | 20° C | 80% | 1006.9 hPa | 0 mm | - | 76 W/m² | - |
| 1788102243 | 20.56° C | 79% | 1006.9 hPa | 0 mm | - | 81 W/m² | - |
| 1788100443 | 20.56° C | 78% | 1006.7 hPa | 0 mm | - | 102 W/m² | - |
| 1788099843 | 20.56° C | 78% | 1006.7 hPa | 0 mm | - | 157 W/m² | - |
| 1788099242 | 21.11° C | 77% | 1006.7 hPa | 0 mm | - | 125 W/m² | - |
| 1788098642 | 21.11° C | 77% | 1006.7 hPa | 0 mm | - | 311 W/m² | - |
| 1788098042 | 21.11° C | 77% | 1006.7 hPa | 0 mm | - | 188 W/m² | - |
| 1788097443 | 21.11° C | 75% | 1006.6 hPa | 0 mm | - | 141 W/m² | - |
| 1788096843 | 21.11° C | 77% | 1006.4 hPa | 0 mm | - | 424 W/m² | - |
| 1788096243 | 21.11° C | 78% | 1006.5 hPa | 0 mm | - | 440 W/m² | - |
| 1788095643 | 21.11° C | 75% | 1006.4 hPa | 0 mm | - | 480 W/m² | - |
| 1788095043 | 21.11° C | 80% | 1006.3 hPa | 0 mm | - | 503 W/m² | - |
| 1788093843 | 21.11° C | 82% | 1006.4 hPa | 0 mm | - | 201 W/m² | - |
| 1788093243 | 20.56° C | 83% | 1006.3 hPa | 0 mm | - | 137 W/m² | - |
| 1788092643 | 20° C | 85% | 1006.4 hPa | 0 mm | - | 667 W/m² | - |
| 1788092043 | 20° C | 86% | 1006.4 hPa | 0 mm | - | 401 W/m² | - |
| 1788091443 | 20° C | 87% | 1006.3 hPa | 0 mm | - | 456 W/m² | - |
| 1788090843 | 20° C | 87% | 1006.3 hPa | 0.25 mm | - | 297 W/m² | - |
| 1788090243 | 20° C | 88% | 1006.4 hPa | 0.25 mm | - | 153 W/m² | - |
| 1788089643 | 19.44° C | 93% | 1006.3 hPa | 0.25 mm | - | 503 W/m² | - |
| 1788089043 | 18.89° C | 92% | 1006.4 hPa | 1.27 mm | - | 285 W/m² | - |
| 1788088442 | 18.89° C | 92% | 1006.5 hPa | 5.08 mm | - | 190 W/m² | - |
| 1788087843 | 18.89° C | 91% | 1006.4 hPa | 5.08 mm | - | 113 W/m² | - |
| 1788087242 | 18.89° C | 91% | 1006.3 hPa | 4.83 mm | - | 153 W/m² | - |
| 1788086644 | 18.89° C | 91% | 1006.3 hPa | 4.83 mm | - | 211 W/m² | - |
* Rain latest hour (hover to see other rain measurements)
** Current wind speed in m/s (hover to see current wind gust speed)